Вернуться в каталог

COSMOS 2251 DEB

АктивенLEO
NORAD 33905·DEBRIS·🇷🇺 Russia

Запущен Jun 16, 1993 с Plesetsk Cosmodrome

Loading…

Ближайшие Пролёты (ближайшие 24 часа)

TLE

СвежийSource: Space-Track

Эпоха: Sep 14, 2026, 05:15 UTC

1 33905U 93036DJ  26257.21919469  .00001189  00000-0  40927-3 0  9998
2 33905  73.8866 166.3752 0056289 356.1497 157.6021 14.36243424916411

Отслеживайте COSMOS 2251 DEB в реальном времени с AllMySat

Download on the App Store